Regional Weather Roundup
Issued by NWS

Home | Current Version | Previous Version | Text Only | Print | Product List | Glossary Off
Versions: 1 2 3 4 5 6 7 8 9 10 11 12 13 14 15 16 17 18 19 20 21 22 23 24 25 26 27 28 29 30 31 32 33 34 35 36 37 38 39 40 41 42 43 44 45 46 47 48 49 50

967
ASUS43 KDTX 250710
RWRMI
MICHIGAN HOURLY REGIONAL WEATHER ROUNDUP
NATIONAL WEATHER SERVICE DETROIT/PONTIAC MI
300 AM EDT MON JUL 25 2016

NOTE: "FAIR" INDICATES FEW OR NO CLOUDS BELOW 12,000 FEET WITH NO
SIGNIFICANT WEATHER AND/OR OBSTRUCTION TO VISIBILITY.

MIZ047>049-052>055-059>063-066>070-074>076-081>083-250800-
SOUTHEAST LOWER MICHIGAN

CITY           SKY/WX    TMP DP  RH WIND       PRES   REMARKS
ADRIAN         CLOUDY    78  76  93 W9        29.92R
ALMA           CLOUDY    77  75  95 W10       29.88R
ANN ARBOR      CLOUDY    76  75  97 S6        29.88F
BAD AXE        CLOUDY    74  67  79 SW6       29.84S
CARO           CLOUDY    80  76  88 W6        29.83F
DETROIT CITY   CLOUDY    80  75  84 SW10      29.86F
DETROIT        CLOUDY    79  74  84 S9        29.87F
FLINT          CLOUDY    82  76  81 SW6       29.86S
GROSSE ILE     MOCLDY    81  74  80 SW10      29.87F
HOWELL         CLOUDY    80  76  86 SW7       29.87F

CITY           SKY/WX    TMP DP  RH WIND       PRES   REMARKS
JACKSON        CLOUDY    81  76  84 W14       29.92R
LAMBERTVILLE   RAIN      82  75  79 SW5       29.90F
LANSING        CLOUDY    81  74  79 W14       29.88R
LAPEER         MOCLDY    79  74  82 SW8       29.86S
MASON          CLOUDY    79  74  84 W6        29.89R
MONROE         CLOUDY    80  76  86 SW6       29.87F
MT. CLEMENS    CLOUDY    80  74  84 S8        29.84F
PONTIAC        MOCLDY    79  74  84 SW6       29.86F
PORT HOPE        N/A     77  73  87 SW6       29.80S
PORT HURON     CLOUDY    75  73  94 S7        29.85F
TRI CITIES     CLOUDY    78  75  90 SW8       29.85R
MIDLAND        FAIR      77  75  94 CALM      29.84S
TROY           CLOUDY    80  73  80 SW7       29.88F
SAGINAW HB     CLOUDY    79  70  73 W7        29.84S
$$
MIZ043>046-050>051-056>058-064>065-071>073-077>080-250800-
SOUTHWEST LOWER MICHIGAN

CITY           SKY/WX    TMP DP  RH WIND       PRES   REMARKS
BATTLE CREEK   LGT RAIN  72  70  93 W16       29.93S
BENTON HARBOR  CLOUDY    76  68  76 W12       29.94S
BIG RAPIDS     CLOUDY    73  72  98 W6        29.88R
COLDWATER      LGT RAIN  72  68  87 W7        29.91F
FREMONT        FAIR      73  73 100 SW6       29.89R
HOLLAND        CLOUDY    76  70  82 SW14      29.94R
GRAND RAPIDS   CLOUDY    77  68  73 SW14      29.91R
IONIA          CLOUDY    77  66  68 W13       29.89R
KALAMAZOO      LGT RAIN  74  68  81 SW9       29.94R
LUDINGTON      MOCLDY    74  67  80 W8        29.88R
MARSHALL       LGT RAIN  77  71  82 W15G22    29.91S
MOUNT PLEASANT CLOUDY    78  75  89 W7        29.86R
MUSKEGON       LGT RAIN  74  72  93 W3        29.91R
SOUTH HAVEN    CLOUDY    75  70  83 SW13      29.94S
$$
MIZ016>042-250800-
NORTHERN LOWER MICHIGAN

CITY           SKY/WX    TMP DP  RH WIND       PRES   REMARKS
ALPENA         PTCLDY    76  72  87 CALM      29.80R
BEAVER ISLAND  CLOUDY    67  67  99 CALM      29.83R
BELLAIRE       CLOUDY    73  70  91 CALM      29.85R
CADILLAC       CLOUDY    72  70  94 W6        29.87S
CHARLEVOIX     MOCLDY    70  69  97 CALM      29.86S FOG
FRANKFORT      CLEAR     72  66  83 NW3       29.86R
GAYLORD        CLOUDY    73  67  81 NW5       29.86R
GRAYLING       PTCLDY    74  73  95 W5        29.86R
HARBOR SPRINGS FOG       69  69  99 SW5       29.83R VSB 1/4
HOUGHTON LAKE  CLOUDY    76  72  87 W8        29.86R
MANISTEE       CLOUDY    74  67  78 NW10      29.87R
OSCODA         MOCLDY    73  72  98 SW7       29.80S
PELLSTON       CLOUDY    68  67  96 NW3       29.82R FOG
ROGERS CITY    MOCLDY    71  68  92 N6        29.81R FOG
TRAVERSE CITY  PTCLDY    74  69  85 NW3       29.84R
$$
MIZ007>008-015-250800-
EASTERN UPPER MICHIGAN

CITY           SKY/WX    TMP DP  RH WIND       PRES   REMARKS
KINROSS        CLOUDY    68  68 100 W5        29.80R FOG
MACKINAC ISLAN CLOUDY    68  68 100 W5        29.81R FOG
NEWBERRY       CLEAR     65  64  97 W5        29.81R
S. S. MARIE    MOCLDY    67  67 100 CALM      29.78R FOG
MUNISING         N/A     71  61  70 W8        29.80S
$$
MIZ004>006-011>014-085-250800-
CENTRAL UPPER MICHIGAN

CITY           SKY/WX    TMP DP  RH WIND       PRES   REMARKS
MANISTIQUE     CLOUDY    66  64  93 W3        29.82R
ESCANABA       CLEAR     64  63  94 W7        29.83S
MENOMINEE        N/A    N/A N/A N/A MISG        N/A
SAWYER-GWINN   CLEAR     65  59  80 W7        29.86R
$$
MIZ001>003-009>011-084-250800-
WESTERN UPPER MICHIGAN

CITY           SKY/WX    TMP DP  RH WIND       PRES   REMARKS
IRON MOUNTAIN  PTCLDY    68  60  75 W6        29.87S
HOUGHTON       MOCLDY    68  59  73 W10       29.81S
COPPER HARBOR    N/A     71  59  65 NW6G20    29.77S
IRONWOOD       CLEAR     64  63  94 W8        29.89R
$$

ABBREVIATIONS USED IN REMARKS
   TC - TEMPERATURE IN CELSIUS
  WCI - WIND CHILL INDEX
   HX - HEAT INDEX
  VSB - VISIBILITY





USA.gov is the U.S. government's official web portal to all federal, state and local government web resources and services.